This is the latest recevied weather packets stored in our database for station/object KE5QKR. If no packets are shown the sender has not sent any weather packets the latest 10 day(s).
| Time | Temp. | Humidity | Pressure | Rain* | Wind** | Luminosity | Snow |
|---|---|---|---|---|---|---|---|
| 1778172941 | 20.56° C | 95% | 1012.9 hPa | 0 mm | - | 314 W/m² | - |
| 1778172638 | 20.56° C | 95% | 1012.9 hPa | 0 mm | - | 232 W/m² | - |
| 1778172334 | 20.56° C | 95% | 1013.2 hPa | 0 mm | - | 235 W/m² | - |
| 1778172031 | 20.56° C | 95% | 1013.3 hPa | 0 mm | - | 176 W/m² | - |
| 1778171728 | 20.56° C | 96% | 1013.2 hPa | 0 mm | - | 206 W/m² | - |
| 1778171427 | 20.56° C | 96% | 1013.4 hPa | 0 mm | - | 262 W/m² | - |
| 1778171121 | 20.56° C | 96% | 1013.4 hPa | 0 mm | - | 198 W/m² | - |
| 1778170818 | 20.56° C | 96% | 1013.2 hPa | 0 mm | - | 244 W/m² | - |
| 1778170514 | 20.56° C | 96% | 1013.2 hPa | 0 mm | - | 237 W/m² | - |
| 1778170212 | 20.56° C | 97% | 1013.1 hPa | 0 mm | - | 281 W/m² | - |
| 1778169907 | 20.56° C | 97% | 1012.9 hPa | 0 mm | - | 275 W/m² | - |
| 1778169603 | 20° C | 98% | 1012.8 hPa | 0 mm | - | 435 W/m² | - |
| 1778169299 | 20.56° C | 99% | 1012.7 hPa | 0 mm | - | 362 W/m² | - |
| 1778168996 | 19.44° C | 99% | 1012.6 hPa | 0 mm | - | 271 W/m² | - |
| 1778168693 | 19.44° C | 99% | 1013 hPa | 0 mm | - | 224 W/m² | - |
| 1778168390 | 19.44° C | 99% | 1012.5 hPa | 0 mm | - | 258 W/m² | - |
| 1778168087 | 19.44° C | 99% | 1012.7 hPa | 0 mm | - | 238 W/m² | - |
| 1778167783 | 19.44° C | 99% | 1012.7 hPa | 0 mm | - | 152 W/m² | - |
| 1778167479 | 19.44° C | 99% | 1012.9 hPa | 0 mm | - | 91 W/m² | - |
| 1778167175 | 19.44° C | 99% | 1013 hPa | 0 mm | - | 50 W/m² | - |
| 1778166872 | 19.44° C | 99% | 1012.8 hPa | 0 mm | - | 63 W/m² | - |
| 1778166569 | 19.44° C | 99% | 1012.8 hPa | 0 mm | - | 119 W/m² | - |
| 1778166266 | 19.44° C | 99% | 1013 hPa | 0 mm | - | 71 W/m² | - |
| 1778165962 | 20° C | 99% | 1012.9 hPa | 0 mm | - | 25 W/m² | - |
| 1778165658 | 20° C | 99% | 1012.9 hPa | 0 mm | - | 48 W/m² | - |
* Rain latest hour (hover to see other rain measurements)
** Current wind speed in m/s (hover to see current wind gust speed)